Time,TemperatureF,DewpointF,PressureIn,WindDirection,WindDirectionDegrees,WindSpeedMPH,WindSpeedGustMPH,Humidity,HourlyPrecipIn,Conditions,Clouds,dailyrainin,SoftwareType,DateUTC
2013-06-23 00:01:00,82.0,-99.9,30.06,ESE,123,10.0,11.0,-999,-99.99,,,-99.99,,2013-06-23 05:01:00,
2013-06-23 00:11:00,82.0,-99.9,30.05,SE,131,10.0,13.0,-999,-99.99,,,-99.99,,2013-06-23 05:11:00,
2013-06-23 00:22:00,82.0,-99.9,30.06,SE,130,11.0,12.0,-999,-99.99,,,-99.99,,2013-06-23 05:22:00,
2013-06-23 00:32:00,82.0,-99.9,30.05,SE,133,10.0,12.0,-999,-99.99,,,-99.99,,2013-06-23 05:32:00,
2013-06-23 00:42:00,82.0,-99.9,30.05,SE,124,10.0,12.0,-999,-99.99,,,-99.99,,2013-06-23 05:42:00,
2013-06-23 00:52:00,82.0,-99.9,30.04,ESE,121,12.0,14.0,-999,-99.99,,,-99.99,,2013-06-23 05:52:00,
2013-06-23 01:02:00,82.0,-99.9,30.04,ESE,123,13.0,15.0,-999,-99.99,,,-99.99,,2013-06-23 06:02:00,
2013-06-23 01:12:00,82.0,-99.9,30.04,SE,130,13.0,14.0,-999,-99.99,,,-99.99,,2013-06-23 06:12:00,
2013-06-23 01:22:00,82.0,-99.9,30.03,SE,124,11.0,13.0,-999,-99.99,,,-99.99,,2013-06-23 06:22:00,
2013-06-23 01:33:00,82.0,-99.9,30.03,SE,125,11.0,13.0,-999,-99.99,,,-99.99,,2013-06-23 06:33:00,
2013-06-23 01:43:00,82.0,-99.9,30.03,SE,125,12.0,14.0,-999,-99.99,,,-99.99,,2013-06-23 06:43:00,
2013-06-23 01:52:00,82.0,-99.9,30.03,SE,131,11.0,13.0,-999,-99.99,,,-99.99,,2013-06-23 06:52:00,
2013-06-23 02:02:00,82.0,-99.9,30.03,SE,131,12.0,14.0,-999,-99.99,,,-99.99,,2013-06-23 07:02:00,
2013-06-23 02:12:00,82.0,-99.9,30.03,SE,130,11.0,12.0,-999,-99.99,,,-99.99,,2013-06-23 07:12:00,
2013-06-23 02:22:00,82.0,-99.9,30.03,SE,126,12.0,15.0,-999,-99.99,,,-99.99,,2013-06-23 07:22:00,
2013-06-23 02:34:00,82.0,-99.9,30.03,SE,125,12.0,13.0,-999,-99.99,,,-99.99,,2013-06-23 07:34:00,
2013-06-23 02:43:00,82.0,-99.9,30.02,SSE,156,13.0,15.0,-999,-99.99,,,-99.99,,2013-06-23 07:43:00,
2013-06-23 02:53:00,82.0,-99.9,30.02,SSE,149,10.0,12.0,-999,-99.99,,,-99.99,,2013-06-23 07:53:00,
2013-06-23 03:02:00,82.0,-99.9,30.02,SE,144,10.0,13.0,-999,-99.99,,,-99.99,,2013-06-23 08:02:00,
2013-06-23 03:12:00,82.0,-99.9,30.02,SSE,148,13.0,15.0,-999,-99.99,,,-99.99,,2013-06-23 08:12:00,
2013-06-23 03:22:00,82.0,-99.9,30.02,SSE,150,13.0,14.0,-999,-99.99,,,-99.99,,2013-06-23 08:22:00,
2013-06-23 03:34:00,82.0,-99.9,30.02,SSE,152,10.0,13.0,-999,-99.99,,,-99.99,,2013-06-23 08:34:00,
2013-06-23 03:43:00,81.0,-99.9,30.02,SE,139,9.0,10.0,-999,-99.99,,,-99.99,,2013-06-23 08:43:00,
2013-06-23 03:53:00,82.0,-99.9,30.02,SE,141,9.0,11.0,-999,-99.99,,,-99.99,,2013-06-23 08:53:00,
2013-06-23 04:02:00,82.0,-99.9,30.02,SSE,151,11.0,12.0,-999,-99.99,,,-99.99,,2013-06-23 09:02:00,
2013-06-23 04:12:00,82.0,-99.9,30.02,South,169,9.0,11.0,-999,-99.99,,,-99.99,,2013-06-23 09:12:00,
2013-06-23 04:22:00,82.0,-99.9,30.02,South,169,9.0,10.0,-999,-99.99,,,-99.99,,2013-06-23 09:22:00,
2013-06-23 04:34:00,82.0,-99.9,30.02,South,178,6.0,8.0,-999,-99.99,,,-99.99,,2013-06-23 09:34:00,
2013-06-23 04:43:00,82.0,-99.9,30.02,SSE,158,7.0,9.0,-999,-99.99,,,-99.99,,2013-06-23 09:43:00,
2013-06-23 04:54:00,81.0,-99.9,30.02,SSE,156,8.0,10.0,-999,-99.99,,,-99.99,,2013-06-23 09:54:00,
2013-06-23 05:02:00,80.0,-99.9,30.02,SE,125,5.0,6.0,-999,-99.99,,,-99.99,,2013-06-23 10:02:00,
2013-06-23 05:12:00,81.0,-99.9,30.01,South,174,9.0,11.0,-999,-99.99,,,-99.99,,2013-06-23 10:12:00,
2013-06-23 05:22:00,82.0,-99.9,30.01,SSE,165,8.0,10.0,-999,-99.99,,,-99.99,,2013-06-23 10:22:00,
2013-06-23 05:34:00,82.0,-99.9,30.02,South,174,8.0,9.0,-999,-99.99,,,-99.99,,2013-06-23 10:34:00,
2013-06-23 05:43:00,82.0,-99.9,30.01,SSE,152,9.0,10.0,-999,-99.99,,,-99.99,,2013-06-23 10:43:00,
2013-06-23 05:53:00,82.0,-99.9,30.02,SSE,166,9.0,11.0,-999,-99.99,,,-99.99,,2013-06-23 10:53:00,
2013-06-23 06:02:00,82.0,-99.9,30.02,SSE,158,9.0,9.0,-999,-99.99,,,-99.99,,2013-06-23 11:02:00,
2013-06-23 06:11:00,82.0,-99.9,30.02,SSE,156,9.0,10.0,-999,-99.99,,,-99.99,,2013-06-23 11:11:00,
2013-06-23 06:22:00,82.0,-99.9,30.03,SSE,150,9.0,10.0,-999,-99.99,,,-99.99,,2013-06-23 11:22:00,
2013-06-23 06:33:00,82.0,-99.9,30.03,SSE,157,9.0,11.0,-999,-99.99,,,-99.99,,2013-06-23 11:33:00,
2013-06-23 06:43:00,82.0,-99.9,30.04,SSE,164,7.0,8.0,-999,-99.99,,,-99.99,,2013-06-23 11:43:00,
2013-06-23 06:53:00,82.0,-99.9,30.04,SSE,163,6.0,7.0,-999,-99.99,,,-99.99,,2013-06-23 11:53:00,
2013-06-23 07:01:00,82.0,-99.9,30.04,SSE,156,7.0,8.0,-999,-99.99,,,-99.99,,2013-06-23 12:01:00,
2013-06-23 07:12:00,82.0,-99.9,30.04,South,174,13.0,14.0,-999,-99.99,,,-99.99,,2013-06-23 12:12:00,
2013-06-23 07:22:00,82.0,-99.9,30.04,South,171,13.0,15.0,-999,-99.99,,,-99.99,,2013-06-23 12:22:00,
2013-06-23 07:34:00,82.0,-99.9,30.04,SSE,168,12.0,14.0,-999,-99.99,,,-99.99,,2013-06-23 12:34:00,
2013-06-23 07:43:00,82.0,-99.9,30.05,South,169,11.0,12.0,-999,-99.99,,,-99.99,,2013-06-23 12:43:00,
2013-06-23 07:53:00,82.0,-99.9,30.05,SSE,165,11.0,13.0,-999,-99.99,,,-99.99,,2013-06-23 12:53:00,
2013-06-23 08:02:00,82.0,-99.9,30.06,South,177,11.0,13.0,-999,-99.99,,,-99.99,,2013-06-23 13:02:00,
2013-06-23 08:12:00,83.0,-99.9,30.06,South,170,9.0,10.0,-999,-99.99,,,-99.99,,2013-06-23 13:12:00,
2013-06-23 08:24:00,83.0,-99.9,30.06,South,185,11.0,13.0,-999,-99.99,,,-99.99,,2013-06-23 13:24:00,
2013-06-23 08:34:00,81.0,-99.9,30.07,South,179,9.0,13.0,-999,-99.99,,,-99.99,,2013-06-23 13:34:00,
2013-06-23 08:43:00,82.0,-99.9,30.07,South,187,9.0,11.0,-999,-99.99,,,-99.99,,2013-06-23 13:43:00,
2013-06-23 08:54:00,82.0,-99.9,30.07,South,187,11.0,12.0,-999,-99.99,,,-99.99,,2013-06-23 13:54:00,
2013-06-23 09:05:00,82.0,-99.9,30.07,South,184,12.0,15.0,-999,-99.99,,,-99.99,,2013-06-23 14:05:00,
2013-06-23 09:11:00,82.0,-99.9,30.07,South,182,12.0,13.0,-999,-99.99,,,-99.99,,2013-06-23 14:11:00,
2013-06-23 09:22:00,82.0,-99.9,30.07,South,180,12.0,14.0,-999,-99.99,,,-99.99,,2013-06-23 14:22:00,
2013-06-23 09:34:00,82.0,-99.9,30.07,South,186,13.0,14.0,-999,-99.99,,,-99.99,,2013-06-23 14:34:00,
2013-06-23 09:44:00,83.0,-99.9,30.07,South,187,13.0,14.0,-999,-99.99,,,-99.99,,2013-06-23 14:44:00,
2013-06-23 09:52:00,82.0,-99.9,30.07,South,175,12.0,14.0,-999,-99.99,,,-99.99,,2013-06-23 14:52:00,
2013-06-23 10:05:00,82.0,-99.9,30.07,South,184,13.0,16.0,-999,-99.99,,,-99.99,,2013-06-23 15:05:00,
2013-06-23 10:35:00,82.0,-99.9,30.08,South,191,11.0,13.0,-999,-99.99,,,-99.99,,2013-06-23 15:35:00,
2013-06-23 10:43:00,82.0,-99.9,30.08,SSW,204,11.0,13.0,-999,-99.99,,,-99.99,,2013-06-23 15:43:00,
2013-06-23 10:53:00,82.0,-99.9,30.08,SSW,198,9.0,11.0,-999,-99.99,,,-99.99,,2013-06-23 15:53:00,
2013-06-23 11:06:00,82.0,-99.9,30.09,South,185,10.0,12.0,-999,-99.99,,,-99.99,,2013-06-23 16:06:00,
2013-06-23 11:12:00,82.0,-99.9,30.09,South,183,9.0,11.0,-999,-99.99,,,-99.99,,2013-06-23 16:12:00,
2013-06-23 11:22:00,83.0,-99.9,30.09,South,178,11.0,13.0,-999,-99.99,,,-99.99,,2013-06-23 16:22:00,
2013-06-23 11:36:00,82.0,-99.9,30.08,South,175,10.0,12.0,-999,-99.99,,,-99.99,,2013-06-23 16:36:00,
2013-06-23 11:43:00,82.0,-99.9,30.08,South,176,11.0,12.0,-999,-99.99,,,-99.99,,2013-06-23 16:43:00,
2013-06-23 11:53:00,82.0,-99.9,30.09,South,183,11.0,13.0,-999,-99.99,,,-99.99,,2013-06-23 16:53:00,
2013-06-23 12:06:00,83.0,-99.9,30.08,South,186,11.0,14.0,-999,-99.99,,,-99.99,,2013-06-23 17:06:00,
2013-06-23 12:12:00,83.0,-99.9,30.08,South,187,13.0,15.0,-999,-99.99,,,-99.99,,2013-06-23 17:12:00,
2013-06-23 12:22:00,82.0,-99.9,30.08,SSW,199,12.0,13.0,-999,-99.99,,,-99.99,,2013-06-23 17:22:00,
2013-06-23 12:34:00,82.0,-99.9,30.09,SSW,202,11.0,13.0,-999,-99.99,,,-99.99,,2013-06-23 17:34:00,
2013-06-23 12:43:00,83.0,-99.9,30.09,SSW,197,11.0,13.0,-999,-99.99,,,-99.99,,2013-06-23 17:43:00,
2013-06-23 12:53:00,82.0,-99.9,30.09,SSW,200,14.0,16.0,-999,-99.99,,,-99.99,,2013-06-23 17:53:00,
2013-06-23 13:01:00,82.0,-99.9,30.09,SSW,198,13.0,15.0,-999,-99.99,,,-99.99,,2013-06-23 18:01:00,
2013-06-23 13:12:00,82.0,-99.9,30.08,SSW,202,12.0,14.0,-999,-99.99,,,-99.99,,2013-06-23 18:12:00,
2013-06-23 13:22:00,82.0,-99.9,30.08,SSW,196,11.0,14.0,-999,-99.99,,,-99.99,,2013-06-23 18:22:00,
2013-06-23 13:53:00,82.0,-99.9,30.07,South,190,12.0,14.0,-999,-99.99,,,-99.99,,2013-06-23 18:53:00,
2013-06-23 14:01:00,82.0,-99.9,30.06,South,188,13.0,17.0,-999,-99.99,,,-99.99,,2013-06-23 19:01:00,
2013-06-23 14:11:00,82.0,-99.9,30.06,South,179,17.0,19.0,-999,-99.99,,,-99.99,,2013-06-23 19:11:00,
2013-06-23 14:22:00,82.0,-99.9,30.06,South,186,13.0,14.0,-999,-99.99,,,-99.99,,2013-06-23 19:22:00,
2013-06-23 14:32:00,82.0,-99.9,30.06,South,178,13.0,15.0,-999,-99.99,,,-99.99,,2013-06-23 19:32:00,
2013-06-23 14:43:00,81.0,-99.9,30.06,South,182,11.0,13.0,-999,-99.99,,,-99.99,,2013-06-23 19:43:00,
2013-06-23 14:53:00,82.0,-99.9,30.06,South,176,11.0,13.0,-999,-99.99,,,-99.99,,2013-06-23 19:53:00,
2013-06-23 15:02:00,82.0,-99.9,30.05,South,191,12.0,15.0,-999,-99.99,,,-99.99,,2013-06-23 20:02:00,
2013-06-23 15:12:00,81.0,-99.9,30.05,SSW,192,11.0,12.0,-999,-99.99,,,-99.99,,2013-06-23 20:12:00,
2013-06-23 15:24:00,82.0,-99.9,30.04,South,181,11.0,12.0,-999,-99.99,,,-99.99,,2013-06-23 20:24:00,
2013-06-23 15:34:00,82.0,-99.9,30.04,SSW,197,11.0,13.0,-999,-99.99,,,-99.99,,2013-06-23 20:34:00,
2013-06-23 15:42:00,82.0,-99.9,30.05,SSW,199,9.0,11.0,-999,-99.99,,,-99.99,,2013-06-23 20:42:00,
2013-06-23 15:53:00,82.0,-99.9,30.06,SSW,210,11.0,14.0,-999,-99.99,,,-99.99,,2013-06-23 20:53:00,
2013-06-23 16:01:00,82.0,-99.9,30.05,SSW,206,12.0,14.0,-999,-99.99,,,-99.99,,2013-06-23 21:01:00,
2013-06-23 16:12:00,82.0,-99.9,30.05,SSW,213,11.0,15.0,-999,-99.99,,,-99.99,,2013-06-23 21:12:00,
2013-06-23 16:22:00,80.0,-99.9,30.05,South,189,20.0,22.0,-999,-99.99,,,-99.99,,2013-06-23 21:22:00,
2013-06-23 16:34:00,80.0,-99.9,30.05,South,186,20.0,22.0,-999,-99.99,,,-99.99,,2013-06-23 21:34:00,
2013-06-23 16:44:00,81.0,-99.9,30.04,South,185,17.0,19.0,-999,-99.99,,,-99.99,,2013-06-23 21:44:00,
2013-06-23 16:52:00,80.0,-99.9,30.04,SSW,194,16.0,18.0,-999,-99.99,,,-99.99,,2013-06-23 21:52:00,
2013-06-23 17:01:00,80.0,-99.9,30.04,South,188,15.0,16.0,-999,-99.99,,,-99.99,,2013-06-23 22:01:00,
2013-06-23 17:12:00,81.0,-99.9,30.04,SW,214,15.0,16.0,-999,-99.99,,,-99.99,,2013-06-23 22:12:00,
2013-06-23 17:22:00,82.0,-99.9,30.05,SSW,212,14.0,16.0,-999,-99.99,,,-99.99,,2013-06-23 22:22:00,
2013-06-23 17:33:00,82.0,-99.9,30.04,SW,215,14.0,15.0,-999,-99.99,,,-99.99,,2013-06-23 22:33:00,
2013-06-23 17:43:00,81.0,-99.9,30.04,SSW,210,14.0,16.0,-999,-99.99,,,-99.99,,2013-06-23 22:43:00,
2013-06-23 17:53:00,82.0,-99.9,30.04,SW,216,11.0,13.0,-999,-99.99,,,-99.99,,2013-06-23 22:53:00,
2013-06-23 18:01:00,82.0,-99.9,30.04,SW,220,12.0,15.0,-999,-99.99,,,-99.99,,2013-06-23 23:01:00,
2013-06-23 18:12:00,82.0,-99.9,30.04,SW,215,10.0,12.0,-999,-99.99,,,-99.99,,2013-06-23 23:12:00,
2013-06-23 18:22:00,82.0,-99.9,30.04,SSW,208,9.0,11.0,-999,-99.99,,,-99.99,,2013-06-23 23:22:00,
2013-06-23 18:33:00,82.0,-99.9,30.04,SSW,203,11.0,14.0,-999,-99.99,,,-99.99,,2013-06-23 23:33:00,
2013-06-23 18:44:00,82.0,-99.9,30.04,SW,214,13.0,16.0,-999,-99.99,,,-99.99,,2013-06-23 23:44:00,
2013-06-23 18:52:00,81.0,-99.9,30.04,SW,232,19.0,23.0,-999,-99.99,,,-99.99,,2013-06-23 23:52:00,
2013-06-23 19:01:00,81.0,-99.9,30.05,WSW,237,17.0,22.0,-999,-99.99,,,-99.99,,2013-06-24 00:01:00,
2013-06-23 19:11:00,81.0,-99.9,30.05,WSW,240,18.0,23.0,-999,-99.99,,,-99.99,,2013-06-24 00:11:00,
2013-06-23 19:22:00,80.0,-99.9,30.05,WSW,254,13.0,15.0,-999,-99.99,,,-99.99,,2013-06-24 00:22:00,
2013-06-23 19:33:00,79.0,-99.9,30.05,WSW,255,11.0,13.0,-999,-99.99,,,-99.99,,2013-06-24 00:33:00,
2013-06-23 19:43:00,80.0,-99.9,30.05,WSW,246,8.0,11.0,-999,-99.99,,,-99.99,,2013-06-24 00:43:00,
2013-06-23 19:52:00,80.0,-99.9,30.06,WSW,245,8.0,10.0,-999,-99.99,,,-99.99,,2013-06-24 00:52:00,
2013-06-23 20:02:00,81.0,-99.9,30.05,SW,236,9.0,10.0,-999,-99.99,,,-99.99,,2013-06-24 01:02:00,
2013-06-23 20:11:00,82.0,-99.9,30.06,WSW,240,7.0,9.0,-999,-99.99,,,-99.99,,2013-06-24 01:11:00,
2013-06-23 20:22:00,82.0,-99.9,30.05,SW,228,8.0,9.0,-999,-99.99,,,-99.99,,2013-06-24 01:22:00,
2013-06-23 20:32:00,82.0,-99.9,30.06,SW,218,10.0,11.0,-999,-99.99,,,-99.99,,2013-06-24 01:32:00,
2013-06-23 20:42:00,82.0,-99.9,30.06,SW,226,10.0,11.0,-999,-99.99,,,-99.99,,2013-06-24 01:42:00,
2013-06-23 20:53:00,82.0,-99.9,30.06,SW,219,9.0,10.0,-999,-99.99,,,-99.99,,2013-06-24 01:53:00,
2013-06-23 21:02:00,82.0,-99.9,30.06,SW,214,10.0,11.0,-999,-99.99,,,-99.99,,2013-06-24 02:02:00,
2013-06-23 21:11:00,82.0,-99.9,30.06,SW,214,11.0,13.0,-999,-99.99,,,-99.99,,2013-06-24 02:11:00,
2013-06-23 21:22:00,82.0,-99.9,30.06,SSW,211,11.0,13.0,-999,-99.99,,,-99.99,,2013-06-24 02:22:00,
2013-06-23 21:33:00,82.0,-99.9,30.06,SSW,209,11.0,13.0,-999,-99.99,,,-99.99,,2013-06-24 02:33:00,
2013-06-23 21:42:00,83.0,-99.9,30.06,SSW,208,12.0,13.0,-999,-99.99,,,-99.99,,2013-06-24 02:42:00,
2013-06-23 21:53:00,83.0,-99.9,30.06,SW,214,12.0,13.0,-999,-99.99,,,-99.99,,2013-06-24 02:53:00,
2013-06-23 22:01:00,83.0,-99.9,30.06,SSW,201,14.0,16.0,-999,-99.99,,,-99.99,,2013-06-24 03:01:00,
2013-06-23 22:22:00,83.0,-99.9,30.07,SSW,206,14.0,16.0,-999,-99.99,,,-99.99,,2013-06-24 03:22:00,
2013-06-23 22:33:00,83.0,-99.9,30.07,SSW,213,14.0,16.0,-999,-99.99,,,-99.99,,2013-06-24 03:33:00,
2013-06-23 22:43:00,83.0,-99.9,30.08,SSW,211,15.0,17.0,-999,-99.99,,,-99.99,,2013-06-24 03:43:00,
2013-06-23 22:53:00,83.0,-99.9,30.08,SSW,203,15.0,17.0,-999,-99.99,,,-99.99,,2013-06-24 03:53:00,
2013-06-23 23:02:00,83.0,-99.9,30.08,SSW,208,15.0,17.0,-999,-99.99,,,-99.99,,2013-06-24 04:02:00,
2013-06-23 23:12:00,83.0,-99.9,30.07,SSW,204,16.0,18.0,-999,-99.99,,,-99.99,,2013-06-24 04:12:00,
2013-06-23 23:22:00,83.0,-99.9,30.07,SSW,211,17.0,19.0,-999,-99.99,,,-99.99,,2013-06-24 04:22:00,
2013-06-23 23:33:00,83.0,-99.9,30.07,SSW,212,17.0,19.0,-999,-99.99,,,-99.99,,2013-06-24 04:33:00,
2013-06-23 23:43:00,83.0,-99.9,30.07,SSW,200,18.0,20.0,-999,-99.99,,,-99.99,,2013-06-24 04:43:00,
2013-06-23 23:53:00,83.0,-99.9,30.07,South,191,19.0,20.0,-999,-99.99,,,-99.99,,2013-06-24 04:53:00,